Home   Weather   Rochester   Past weeks

Flag for USA Past Weather in Rochester, New York, USA — Yesterday and Last 2 Weeks

Now
34 °F

Sleet. Mostly cloudy.


Feels Like: 25 °F
Forecast: 32 / 34 °F
Wind: 12 mph from Northeast

Location: Greater Rochester International Airport

Current Time: Jan 24, 2017 at 4:38:45 am

Latest Report: Jan 24, 2017 at 3:54 am


Visibility: 8 mi

Pressure: 29.70 "Hg

Humidity: 92%

Dew Point: 32 °F

Location of RochesterLocation

Past Weather in Rochester — Graph

°F

Rochester Temperature Yesterday

Maximum temperature yesterday: 44 °F (at 12:54 pm)
Minimum temperature yesterday: 35 °F (at 10:54 pm)
Average temperature yesterday: 40 °F

High & Low Weather Summary for the Past Weeks

 TemperatureHumidityPressure
High56 °F (Jan 12, 7:54 am)100% (Jan 21, 8:39 am)30.79 "Hg (Jan 21, 8:39 am)
Low11 °F (Jan 9, 3:54 am)32% (Jan 11, 3:54 pm)29.65 "Hg (Jan 11, 1:54 am)
Average36 °F78%30.06 "Hg
* Reported Jan 9 3:54 am — Jan 24 3:11 am, Rochester, Weather by CustomWeather, © 2017

Note: Actual official high and low records may vary slightly from our data, if they occured in-between our weather recording intervals... More about our weather records

Advertising

Rochester Weather History for the Previous 24 Hours

Scroll right to see more
 ConditionsComfort  
Time TempWeatherWind HumidityBarometerVisibility
3:11 am
Tue, Jan 24
33 °FLight freezing rain. Mostly cloudy.7 mph92%29.68 "Hg8 mi
2:54 am33 °FLight freezing rain. Mostly cloudy.8 mph92%29.71 "Hg7 mi
1:54 am33 °FSleet. Mostly cloudy.7 mph88%29.72 "Hg8 mi
12:54 am33 °FLight rain. Fog.13 mph85%29.74 "Hg6 mi
11:54 pm
Mon, Jan 23
36 °FLight rain. Overcast.13 mph67%29.75 "Hg10 mi
10:54 pm35 °FMostly cloudy.10 mph70%29.76 "Hg10 mi
9:54 pm36 °FPartly cloudy.13 mph67%29.78 "Hg10 mi
8:54 pm36 °FPartly cloudy.14 mph67%29.78 "Hg10 mi
7:54 pm37 °FMostly cloudy.12 mph65%29.80 "Hg10 mi
6:54 pm37 °FOvercast.13 mph67%29.81 "Hg10 mi
5:54 pm38 °FPassing clouds.10 mph68%29.79 "Hg10 mi
4:54 pm39 °FMore clouds than sun.14 mph67%29.76 "Hg10 mi
4:22 pm40 °FBroken clouds.22 mph65%29.74 "Hg10 mi
3:54 pm41 °FMostly cloudy.18 mph67%29.76 "Hg10 mi
2:54 pm42 °FPartly sunny.14 mph68%29.75 "Hg10 mi
1:54 pm43 °FMostly cloudy.13 mph71%29.75 "Hg10 mi
1:01 pm44 °FMostly cloudy.12 mph71%29.75 "Hg10 mi
12:54 pm44 °FMostly cloudy.14 mph71%29.78 "Hg10 mi
11:54 am43 °FMostly cloudy.13 mph76%29.79 "Hg10 mi
10:54 am43 °FMostly cloudy.10 mph79%29.83 "Hg10 mi
10:25 am43 °FMostly cloudy.10 mph82%29.80 "Hg10 mi
9:54 am43 °FPartly sunny.13 mph82%29.82 "Hg10 mi
9:20 am42 °FPartly sunny.10 mph85%29.80 "Hg10 mi
8:54 am43 °FPartly sunny.8 mph86%29.81 "Hg10 mi
8:11 am42 °FBroken clouds.8 mph92%29.78 "Hg10 mi
7:54 am42 °FMostly cloudy.7 mph92%29.80 "Hg10 mi
7:34 am42 °FOvercast.8 mph92%29.77 "Hg10 mi
7:11 am41 °FMostly cloudy.8 mph93%29.77 "Hg8 mi
6:54 am41 °FFog.9 mph93%29.78 "Hg6 mi
5:54 am40 °FFog.8 mph97%29.78 "Hg3 mi
5:06 am39 °FFog.6 mph96%29.75 "Hg1 mi
4:54 am39 °FFog.7 mph96%29.77 "Hg4 mi
Weather by CustomWeather, © 2017

See weather overviewHow to use our weather pages